Content
SEND FEEDBACK

Daily
Averages
Monthly
Summary
United States of America

ST. LOUIS, MISSOURI


Home > North America > United States > Missouri
Elevation: 535 feet     Latitude: 38 45N     Longitude: 090 22W

WEATHER
 
SELECT A DAY
Number of Records: 201,463;   Date Range: 1/1/95 - 12/26/14
 
SHARE

PRINT THIS DATA

[ ← Previous Day ]
WEATHER ALMANAC - JULY 30, 2014
[ Next Day → ]
[ °C ]   °F
Weather ElementAverageHighLow
Temperature72.1 °F84 °F (12:54 pm)59 °F (12:54 am)
Dewpoint57.1 °F62.1 °F (9:54 am)52 °F (3:54 am)
Humidity63.8 %93 % (7:54 pm)34 % (1:54 pm)
Barometer30.05 in30.08 in (1:54 pm)30.01 in (1:06 am)
Wind Speed2.1 mph8.1 mph (3:54 pm)
Weather ElementAverage
Visibility10 mi
Wind DirectionNE (50.4 °)

Weather ElementTotal
Precipitation---
Cooling Degree Days6.5 (Base 65)
Growing Degree Days21.5 (Base 50)
Averaged from 24 records on July 30, 2014
WEATHER CONDITIONS BREAKOUT
WIND DIRECTION BREAKOUT
WEATHER BY HOUR - JULY 30, 2014
[ °C ]   °F
Local TimeTemperatureDewpointHumidityBarometerVisibilityWind DirectionWind SpeedGust SpeedPrecipitationEventsConditions
12:54 AM62.1 °F57.9 °F86 %30.08 in10.0 miCalmOvercast
1:54 AM63.0 °F59.0 °F87 %30.06 in10.0 miCalmOvercast
2:54 AM63.0 °F59.0 °F87 %30.06 in10.0 miCalmOvercast
3:54 AM62.1 °F59.0 °F90 %30.05 in10.0 miCalmOvercast
4:54 AM60.1 °F57.0 °F90 %30.05 in10.0 miCalmClear
5:54 AM59.0 °F57.0 °F93 %30.06 in10.0 miCalmClear
6:54 AM60.1 °F57.9 °F93 %30.07 in10.0 miCalmClear
7:54 AM64.9 °F59.0 °F81 %30.08 in10.0 miCalmClear
8:54 AM72.0 °F60.1 °F66 %30.08 in10.0 miCalmMostly Cloudy
9:54 AM77.0 °F60.1 °F56 %30.08 in10.0 miWNW (300°)3.5 mphPartly Cloudy
10:54 AM80.1 °F54.0 °F40 %30.08 in10.0 miCalmMostly Cloudy
11:54 AM80.1 °F52.0 °F38 %30.07 in10.0 miVariable3.5 mphMostly Cloudy
12:54 PM82.9 °F54.0 °F37 %30.05 in10.0 miWNW (300°)6.9 mphMostly Cloudy
1:54 PM82.9 °F54.0 °F37 %30.04 in10.0 miNorth (10°)8.1 mphMostly Cloudy
2:54 PM84.0 °F53.1 °F34 %30.03 in10.0 miNorth (10°)4.6 mphMostly Cloudy
3:54 PM81.0 °F54.0 °F39 %30.03 in10.0 miNW (310°)4.6 mphScattered Clouds
4:54 PM82.9 °F53.1 °F36 %30.02 in10.0 miNNE (20°)5.8 mphMostly Cloudy
5:54 PM82.9 °F54.0 °F37 %30.01 in10.0 miNNE (20°)5.8 mphMostly Cloudy
6:54 PM81.0 °F55.0 °F41 %30.01 in10.0 miNNE (20°)4.6 mphMostly Cloudy
7:54 PM75.9 °F60.1 °F58 %30.01 in10.0 miCalmOvercast
8:54 PM70.0 °F60.1 °F71 %30.02 in10.0 miCalmMostly Cloudy
9:54 PM68.0 °F59.0 °F73 %30.05 in10.0 miCalmMostly Cloudy
10:54 PM68.0 °F62.1 °F81 %30.04 in10.0 miSW (220°)3.5 mphMostly Cloudy
11:54 PM66.9 °F61.0 °F81 %30.04 in10.0 miCalmMostly Cloudy
Hourly data recorded from KSUS, located miles away from St. Louis, Missouri







STORIES FROM OUR PARTNERS